Simultaneous Nadir Overpasses (SNOs) Predictions

Prediction of SNOs between GOES-16 and LANDSAT-8 Satellite Orbit:

Table of predicted SNOs for the next 14.0 days since TLE Epoch: 4/4/2020
Index Date Time (GOES-16) GOES-16 Lat,Lon LANDSAT-8 Lat,Lon Distance(km) Time Diff (sec)
1 04/05/2020 03:03:10 -0.00, -75.15 0.39, -73.18 223.48 80
2 04/05/2020 15:24:26 -0.00, -75.18 0.66, -78.35 359.27 80
3 04/07/2020 15:12:13 0.00, -75.22 0.06, -75.38 18.86 80
4 04/09/2020 15:02:41 0.00, -75.27 -0.60, -72.43 322.36 80
5 04/10/2020 03:24:05 -0.00, -75.26 -0.50, -77.63 269.35 80
6 04/12/2020 03:09:13 -0.00, -75.31 0.16, -74.68 72.12 80
7 04/14/2020 02:57:00 0.01, -75.36 0.76, -71.72 413.77 80
8 04/14/2020 15:18:16 -0.01, -75.40 0.29, -76.88 168.65 80
9 04/16/2020 15:08:44 -0.02, -75.46 -0.37, -73.93 174.06 80
10 04/17/2020 03:30:06 0.02, -75.45 -0.78, -79.11 416.96 80




NCC Satellite Simultaneous Nadir Overpasses (SNOs) Prediction Service
